Weather History for KMAO - February, 2013

Change the Weather History Date:

Saturday, February 16, 2013

  Actual Average (KFLO) Record (KFLO)
Temperature  
Mean Temperature 39 °F 49 °F  
Max Temperature 46 °F 60 °F 85 °F (1990)
Min Temperature 32 °F 38 °F 17 °F (1991)
Degree Days  
Heating Degree Days 26 16  
Month to date heating degree days 284  
Since 1 July heating degree days 1886  
Cooling Degree Days 0 0  
Month to date cooling degree days 0  
Year to date cooling degree days 2  
Moisture  
Dew Point 36 °F    
Average Humidity 94    
Maximum Humidity 100    
Minimum Humidity 66    
Precipitation  
Precipitation 0.08 in 0.11 in 1.43 in (1982)
Month to date precipitation 1.63  
Year to date precipitation 4.86  
Sea Level Pressure  
Sea Level Pressure 29.90 in    
Wind  
Wind Speed 6 mph (NW)    
Max Wind Speed 16 mph    
Max Gust Speed 23 mph    
Visibility 9 miles    
Events Rain , Snow    
T = Trace of Precipitation, MM = Missing Value Source: NWS Daily Summary

Daily Weather History Graph

Daily Weather History Graph

Search for Another Location

Airport or City:

Trip Planner

Search our weather history database for the weather conditions in past years. The results will help you decide how hot, cold, wet, or windy it might be!

Date:

Astronomy

Feb. 16, 2013 Rise Set
Actual Time 7:00 AM EST 6:02 PM EST
Civil Twilight 6:35 AM EST 6:27 PM EST
Nautical Twilight 6:06 AM EST 6:57 PM EST
Astronomical Twilight 5:36 AM EST 7:26 PM EST
Moon 10:32 AM EST (2/16) No Moon Set
Length of Visible Light 11h 52m
Length of Day
11h 01m
Waxing Crescent, 39% of the Moon is Illuminated
Feb 16
Waxing Crescent
Feb 17
First Quarter
Feb 25
Full
Mar 4
Last Quarter
Mar 11
New

Hourly Weather History & Observations

Time (EST) Temp. Windchill Dew Point Humidity Pressure Visibility Wind Dir Wind Speed Gust Speed Precip Events Conditions
12:15 AM 41.0 °F 38.0 °F 39.2 °F 93% 29.96 in 10.0 mi South 4.6 mph - N/A   Clear
12:35 AM 41.0 °F 38.0 °F 39.2 °F 93% 29.96 in 10.0 mi South 4.6 mph - N/A   Clear
12:55 AM 41.0 °F 38.0 °F 39.2 °F 93% 29.95 in 10.0 mi South 4.6 mph - N/A   Clear
1:15 AM 41.0 °F 37.1 °F 39.2 °F 93% 29.94 in 10.0 mi South 5.8 mph - N/A   Clear
1:35 AM 42.8 °F 39.3 °F 39.2 °F 87% 29.93 in 10.0 mi South 5.8 mph - N/A   Clear
1:55 AM 41.0 °F 39.0 °F 39.2 °F 93% 29.93 in 10.0 mi South 3.5 mph - N/A   Clear
2:15 AM 41.0 °F 38.0 °F 39.2 °F 93% 29.93 in 10.0 mi South 4.6 mph - N/A   Clear
2:35 AM 41.0 °F 37.1 °F 39.2 °F 93% 29.93 in 10.0 mi SSW 5.8 mph - N/A   Clear
2:55 AM 41.0 °F 37.1 °F 41.0 °F 100% 29.95 in 10.0 mi West 5.8 mph - N/A   Clear
3:15 AM 41.0 °F - 41.0 °F 100% 29.95 in 10.0 mi Calm Calm - N/A   Clear
3:35 AM 37.4 °F - 37.4 °F 100% 29.93 in 10.0 mi Calm Calm - N/A   Scattered Clouds
3:55 AM 37.4 °F - 37.4 °F 100% 29.92 in 7.0 mi Calm Calm - N/A   Scattered Clouds
4:15 AM 37.4 °F 34.9 °F 37.4 °F 100% 29.91 in 7.0 mi NNW 3.5 mph - N/A   Clear
4:35 AM 37.4 °F 33.8 °F 37.4 °F 100% 29.91 in 7.0 mi NNW 4.6 mph - N/A   Clear
4:55 AM 37.4 °F - 37.4 °F 100% 29.91 in 5.0 mi Calm Calm - N/A   Clear
5:15 AM 37.4 °F - 37.4 °F 100% 29.90 in 10.0 mi Calm Calm - N/A   Clear
5:35 AM 37.4 °F - 37.4 °F 100% 29.90 in 10.0 mi Calm Calm - N/A   Clear
5:55 AM 41.0 °F 37.1 °F 39.2 °F 93% 29.90 in 10.0 mi NNE 5.8 mph - N/A   Clear
6:15 AM 41.0 °F 38.0 °F 37.4 °F 87% 29.89 in 10.0 mi NNE 4.6 mph - N/A   Clear
6:35 AM 41.0 °F 39.0 °F 37.4 °F 87% 29.89 in 10.0 mi North 3.5 mph - N/A   Clear
6:55 AM 41.0 °F 38.0 °F 37.4 °F 87% 29.90 in 10.0 mi NNW 4.6 mph - N/A   Clear
7:15 AM 41.0 °F - 37.4 °F 87% 29.90 in 10.0 mi Calm Calm - N/A   Clear
7:35 AM 41.0 °F 38.0 °F 37.4 °F 87% 29.91 in 10.0 mi NW 4.6 mph - N/A   Clear
7:55 AM 41.0 °F 37.1 °F 37.4 °F 87% 29.91 in 10.0 mi NNW 5.8 mph - N/A   Clear
8:15 AM 41.0 °F 36.4 °F 37.4 °F 87% 29.91 in 10.0 mi NNW 6.9 mph - N/A   Clear
8:35 AM 41.0 °F 36.4 °F 35.6 °F 81% 29.91 in 10.0 mi North 6.9 mph - N/A   Clear
8:55 AM 42.8 °F 38.0 °F 35.6 °F 76% 29.91 in 10.0 mi North 8.1 mph - N/A   Clear
9:15 AM 44.6 °F 38.4 °F 35.6 °F 71% 29.91 in 10.0 mi North 12.7 mph - N/A   Clear
9:35 AM 44.6 °F 38.1 °F 35.6 °F 71% 29.90 in 10.0 mi North 13.8 mph 21.9 mph N/A   Clear
9:55 AM 44.6 °F 39.2 °F 35.6 °F 71% 29.90 in 10.0 mi North 10.4 mph 17.3 mph N/A   Scattered Clouds
10:15 AM 46.4 °F 40.4 °F 35.6 °F 66% 29.89 in 10.0 mi North 13.8 mph 21.9 mph N/A   Scattered Clouds
10:35 AM 46.4 °F 40.7 °F 35.6 °F 66% 29.89 in 10.0 mi NNW 12.7 mph - N/A   Mostly Cloudy
1:15 PM 37.4 °F 28.2 °F 35.6 °F 93% 29.87 in 10.0 mi NNW 16.1 mph 23.0 mph N/A   Drizzle
1:35 PM 35.6 °F 27.1 °F 35.6 °F 100% 29.87 in 7.0 mi NNW 12.7 mph 20.7 mph N/A Rain Rain
1:55 PM 35.6 °F 29.9 °F 35.6 °F 100% 29.88 in 5.0 mi NW 6.9 mph - 0.01 in Rain Light Rain
2:15 PM 35.6 °F 29.2 °F 35.6 °F 100% 29.87 in 7.0 mi NNW 8.1 mph - N/A Rain Light Rain
2:35 PM 35.6 °F 29.2 °F 35.6 °F 100% 29.87 in 10.0 mi NNW 8.1 mph - 0.01 in Rain Light Rain
2:55 PM 35.6 °F 29.2 °F 35.6 °F 100% 29.87 in 10.0 mi NNW 8.1 mph - 0.01 in Rain Light Rain
3:15 PM 35.6 °F 29.2 °F 35.6 °F 100% 29.87 in 10.0 mi NNW 8.1 mph - 0.01 in Rain Light Rain
3:35 PM 35.6 °F 29.2 °F 35.6 °F 100% 29.86 in 10.0 mi NW 8.1 mph - 0.01 in Rain Light Rain
3:55 PM 35.6 °F 29.9 °F 35.6 °F 100% 29.85 in 10.0 mi NNW 6.9 mph - 0.01 in Rain Light Rain
4:15 PM 35.6 °F 29.2 °F 35.6 °F 100% 29.83 in 10.0 mi NE 8.1 mph - N/A   Light Drizzle
4:35 PM 35.6 °F 30.7 °F 35.6 °F 100% 29.83 in 10.0 mi North 5.8 mph - N/A   Overcast
4:55 PM 35.6 °F 29.2 °F 35.6 °F 100% 29.84 in 10.0 mi NW 8.1 mph - N/A   Overcast
5:15 PM 35.6 °F 29.9 °F 35.6 °F 100% 29.85 in 10.0 mi NW 6.9 mph - N/A   Overcast
5:35 PM 35.6 °F 30.7 °F 35.6 °F 100% 29.87 in 10.0 mi NW 5.8 mph - N/A   Overcast
5:55 PM 35.6 °F 28.6 °F 35.6 °F 100% 29.87 in 10.0 mi NW 9.2 mph - N/A   Overcast
6:15 PM 35.6 °F 30.7 °F 35.6 °F 100% 29.87 in 10.0 mi NW 5.8 mph - N/A   Overcast
6:35 PM 35.6 °F 31.7 °F 35.6 °F 100% 29.86 in 10.0 mi North 4.6 mph - N/A   Overcast
6:55 PM 37.4 °F - 37.4 °F 100% 29.86 in 10.0 mi Calm Calm - N/A   Overcast
7:15 PM 37.4 °F 32.1 °F 37.4 °F 100% 29.87 in 10.0 mi NW 6.9 mph - N/A   Overcast
7:35 PM 37.4 °F 32.1 °F 35.6 °F 93% 29.87 in 10.0 mi North 6.9 mph - N/A   Overcast
7:55 PM 35.6 °F 29.2 °F 35.6 °F 100% 29.88 in 10.0 mi North 8.1 mph - N/A Rain Light Rain
8:15 PM 35.6 °F 29.9 °F 35.6 °F 100% 29.89 in 7.0 mi North 6.9 mph - N/A Rain Light Rain
8:35 PM 33.8 °F 27.0 °F 33.8 °F 100% 29.91 in 4.0 mi NNW 8.1 mph - 0.01 in Rain Rain
8:55 PM 33.8 °F 28.6 °F 33.8 °F 100% 29.92 in 1.5 mi NW 5.8 mph - 0.03 in Snow Light Snow
9:15 PM 32.0 °F 26.4 °F 32.0 °F 100% 29.93 in 1.2 mi NW 5.8 mph - 0.01 in Snow Light Snow
9:35 PM 32.0 °F 27.5 °F 32.0 °F 100% 29.94 in 1.8 mi NW 4.6 mph - 0.02 in Snow Light Snow
9:55 PM 32.0 °F 26.4 °F 32.0 °F 100% 29.95 in 1.8 mi WNW 5.8 mph - 0.02 in Snow Light Snow
10:15 PM 32.0 °F 22.1 °F 32.0 °F 100% 29.96 in 1.8 mi WNW 13.8 mph 20.7 mph N/A Snow Light Snow
10:35 PM 33.8 °F 25.8 °F 33.8 °F 100% 29.96 in 10.0 mi WNW 10.4 mph 16.1 mph N/A   Overcast
10:55 PM 33.8 °F 25.8 °F 33.8 °F 100% 29.97 in 10.0 mi West 10.4 mph - N/A   Overcast
11:15 PM 33.8 °F 24.3 °F 32.0 °F 93% 29.97 in 10.0 mi WNW 13.8 mph 21.9 mph N/A   Overcast
11:35 PM 33.8 °F 26.4 °F 32.0 °F 93% 29.97 in 10.0 mi NW 9.2 mph 16.1 mph N/A   Overcast
11:55 PM 33.8 °F 26.4 °F 30.2 °F 87% 29.98 in 10.0 mi NW 9.2 mph 16.1 mph N/A   Mostly Cloudy